Starlink 32328

operational
NORAD ID: 62489 Int'l Des: 2025-003 Owner: SPXS Country: US Constellation: starlink
LEOCIRCULAR

Über Starlink 32328

Beschreibung wird geladen...

Live-Position

3D-Globus wird geladen...

Nächste Überflüge

Höhenverlauf

Altitude vs Time

uPlot chart will show altitude changes over time

Zweizeiliger Elementsatz

1 62489U 25003C 25347.47893945 .00016721 00000-0 61614-3 0 9997
2 62489 42.9998 56.1102 0001358 277.5098 82.5599 15.27559360 53483
Epoch: 13. Dez. 2025 • Age: 25 hours

Aktueller Status

Höhe 492.7 km
Geschwindigkeit 7.62 km/s
Subsatellitenpunkt -36.48°S, 89.69°E
Startdatum 6. Jan. 2025
Alter 0.9 years
Typ internet

Technische Details

Klassifizierung Payload
Masse 730.00 kg
Trockenmasse 700.00 kg
Gesamtmasse 730.00 kg
Länge 0.30 m
Durchmesser 4.10 m
Spannweite 29.00 m
Form Box + pan
Hersteller SPXS
Bus-Typ Starlink V2M
Phasenstatus In Orbit
Besitzer/Staat SPXS/US

Große Konstellationen

Loading constellations...